Leesburg, VA

11:00 AM EST on December 08, 2019 (GMT -0500)
Leesburg Executive

Weather History for KJYO - July, 2019

Change the Weather History Date:

Monday, July 22, 2019

  Actual Average (WUND) Record (WUND)
Temperature  
Mean Temperature 80 °F -  
Max Temperature 91 °F - - (-1)
Min Temperature 68 °F - - (-1)
Cooling Degree Days 14    
Growing Degree Days 30 (Base 50)    
Moisture  
Dew Point 72 °F    
Average Humidity 83    
Maximum Humidity 100    
Minimum Humidity 52    
Precipitation  
Precipitation 0.02 in - - ()
Sea Level Pressure  
Sea Level Pressure 29.85 in    
Wind  
Wind Speed 3 mph (West)    
Max Wind Speed 26 mph    
Max Gust Speed 34 mph    
Visibility 10 miles    
Events Thunderstorm    
Averages and records for this station are not official NWS values.
T = Trace of Precipitation, MM = Missing Value Source: NWS Daily Summary

Daily Weather History Graph

Daily Weather History Graph

Search for Another Location

Airport or City:

Astronomy

Jul. 22, 2019 Rise Set
Actual Time 6:02 AM EDT 8:30 PM EDT
Civil Twilight 5:31 AM EDT 9:01 PM EDT
Nautical Twilight 4:53 AM EDT 9:39 PM EDT
Astronomical Twilight 4:10 AM EDT 10:21 PM EDT
Moon 11:53 PM EDT (7/22) 11:14 AM EDT (7/22)
Length of Visible Light 15h 30m
Length of Day
14h 28m
Waning Gibbous, 72% of the Moon is Illuminated
Jul 22
Waning Gibbous
Jul 24
Last Quarter
Jul 31
New
Aug 7
First Quarter
Aug 15
Full

Hourly Weather History & Observations

Time (EDT) Temp. Heat Index Dew Point Humidity Pressure Visibility Wind Dir Wind Speed Gust Speed Precip Events Conditions
12:15 AM 73.4 °F - 71.6 °F 94% 29.93 in 10.0 mi Calm Calm - N/A   Clear
12:35 AM 73.4 °F - 71.6 °F 94% 29.92 in 10.0 mi Calm Calm - N/A   Clear
12:55 AM 71.6 °F - 71.6 °F 100% 29.92 in 10.0 mi South 4.6 mph - N/A   Clear
1:15 AM 69.8 °F - 69.8 °F 100% 29.92 in 10.0 mi SW 3.5 mph - N/A   Clear
1:35 AM 71.6 °F - 71.6 °F 100% 29.91 in 10.0 mi South 3.5 mph - N/A   Clear
1:55 AM 71.6 °F - 69.8 °F 94% 29.91 in 10.0 mi WSW 3.5 mph - N/A   Clear
2:15 AM 69.8 °F - 69.8 °F 100% 29.91 in 10.0 mi Calm Calm - N/A   Clear
2:35 AM 69.8 °F - 69.8 °F 100% 29.91 in 10.0 mi Calm Calm - N/A   Clear
2:55 AM 69.8 °F - 69.8 °F 100% 29.90 in 10.0 mi Calm Calm - N/A   Clear
3:15 AM 71.6 °F - 69.8 °F 94% 29.91 in 10.0 mi Calm Calm - N/A   Clear
3:35 AM 69.8 °F - 69.8 °F 100% 29.91 in 10.0 mi Calm Calm - N/A   Clear
3:55 AM 69.8 °F - 69.8 °F 100% 29.90 in 10.0 mi Calm Calm - N/A   Clear
4:15 AM 69.8 °F - 69.8 °F 100% 29.90 in 10.0 mi Calm Calm - N/A   Clear
4:35 AM 68.0 °F - 68.0 °F 100% 29.89 in 10.0 mi West 4.6 mph - N/A   Clear
4:55 AM 69.8 °F - 69.8 °F 100% 29.90 in 10.0 mi Calm Calm - N/A   Clear
5:15 AM 69.8 °F - 69.8 °F 100% 29.89 in 10.0 mi Calm Calm - N/A   Clear
5:35 AM 69.8 °F - 69.8 °F 100% 29.89 in 10.0 mi Calm Calm - N/A   Scattered Clouds
5:55 AM 69.8 °F - 69.8 °F 100% 29.89 in 10.0 mi Calm Calm - N/A   Clear
6:15 AM 69.8 °F - 69.8 °F 100% 29.88 in 10.0 mi Calm Calm - N/A   Clear
6:35 AM 69.8 °F - 69.8 °F 100% 29.88 in 10.0 mi Calm Calm - N/A   Clear
6:55 AM 71.6 °F - 69.8 °F 94% 29.88 in 10.0 mi Calm Calm - N/A   Clear
7:15 AM 71.6 °F - 69.8 °F 94% 29.88 in 10.0 mi Calm Calm - N/A   Clear
7:35 AM 73.4 °F - 69.8 °F 88% 29.89 in 10.0 mi Calm Calm - N/A   Clear
7:55 AM 75.2 °F - 69.8 °F 83% 29.89 in 10.0 mi Calm Calm - N/A   Clear
8:15 AM 77.0 °F - 69.8 °F 78% 29.89 in 10.0 mi Calm Calm - N/A   Clear
8:35 AM 77.0 °F - 71.6 °F 83% 29.89 in 10.0 mi Calm Calm - N/A   Clear
8:55 AM 78.8 °F - 71.6 °F 78% 29.88 in 10.0 mi Calm Calm - N/A   Clear
9:15 AM 78.8 °F - 71.6 °F 78% 29.88 in 10.0 mi Calm Calm - N/A   Clear
9:35 AM 80.6 °F 83.9 °F 69.8 °F 70% 29.87 in 10.0 mi Calm Calm - N/A   Clear
9:55 AM 82.4 °F 88.2 °F 73.4 °F 74% 29.87 in 10.0 mi Calm Calm - N/A   Clear
10:15 AM 84.2 °F 90.9 °F 73.4 °F 70% 29.87 in 10.0 mi SW 3.5 mph - N/A   Clear
10:35 AM 84.2 °F 89.6 °F 71.6 °F 66% 29.86 in 10.0 mi WSW 3.5 mph - N/A   Clear
10:55 AM 86.0 °F 91.8 °F 71.6 °F 62% 29.87 in 10.0 mi Calm Calm - N/A   Clear
11:15 AM 87.8 °F 93.8 °F 71.6 °F 58% 29.87 in 10.0 mi Calm Calm - N/A   Scattered Clouds
11:35 AM 87.8 °F 95.6 °F 73.4 °F 62% 29.86 in 10.0 mi SW 4.6 mph - N/A   Scattered Clouds
11:55 AM 87.8 °F 95.6 °F 73.4 °F 62% 29.85 in 10.0 mi Calm Calm - N/A   Scattered Clouds
12:15 PM 89.6 °F 99.8 °F 75.2 °F 62% 29.85 in 10.0 mi West 8.1 mph - N/A   Clear
12:35 PM 89.6 °F 102.2 °F 77.0 °F 66% 29.84 in 10.0 mi West 9.2 mph - N/A   Scattered Clouds
12:55 PM 89.6 °F 96.2 °F 71.6 °F 55% 29.83 in 10.0 mi West 12.7 mph 16.1 mph N/A   Clear
1:15 PM 91.4 °F 98.4 °F 71.6 °F 52% 29.83 in 10.0 mi SW 11.5 mph - N/A   Clear
1:35 PM 91.4 °F 100.1 °F 73.4 °F 55% 29.81 in 10.0 mi West 8.1 mph - N/A   Scattered Clouds
1:55 PM 91.4 °F 100.1 °F 73.4 °F 55% 29.80 in 10.0 mi WSW 8.1 mph - N/A   Scattered Clouds
2:15 PM 91.4 °F 100.1 °F 73.4 °F 55% 29.80 in 10.0 mi WSW 8.1 mph - N/A   Scattered Clouds
2:35 PM 91.4 °F 100.1 °F 73.4 °F 55% 29.80 in 10.0 mi WSW 10.4 mph - N/A   Mostly Cloudy
2:55 PM 86.0 °F 95.1 °F 75.2 °F 70% 29.80 in 10.0 mi NNW 26.5 mph 34.5 mph N/A Thunderstorm Overcast
3:15 PM 77.0 °F - 73.4 °F 89% 29.81 in 10.0 mi NW 8.1 mph 18.4 mph 0.02 in Thunderstorm Overcast
3:35 PM 77.0 °F - 71.6 °F 83% 29.82 in 10.0 mi WSW 3.5 mph 16.1 mph 0.02 in   Overcast
3:55 PM 77.0 °F - 71.6 °F 83% 29.82 in 10.0 mi NW 8.1 mph - 0.02 in Thunderstorm Thunderstorm
4:15 PM 78.8 °F - 71.6 °F 78% 29.81 in 10.0 mi NW 6.9 mph - N/A   Scattered Clouds
4:35 PM 78.8 °F - 71.6 °F 78% 29.80 in 10.0 mi WNW 5.8 mph - N/A   Scattered Clouds
4:55 PM 78.8 °F - 71.6 °F 78% 29.80 in 10.0 mi WNW 4.6 mph - N/A   Mostly Cloudy
5:15 PM 78.8 °F - 71.6 °F 78% 29.80 in 10.0 mi Calm Calm - N/A   Mostly Cloudy
5:35 PM 78.8 °F - 73.4 °F 83% 29.79 in 10.0 mi West 4.6 mph - N/A   Overcast
5:55 PM 78.8 °F - 73.4 °F 83% 29.79 in 10.0 mi Calm Calm - N/A   Mostly Cloudy
6:15 PM 80.6 °F 85.4 °F 73.4 °F 79% 29.78 in 10.0 mi Calm Calm - N/A   Clear
6:35 PM 80.6 °F 85.4 °F 73.4 °F 79% 29.79 in 10.0 mi Calm Calm - N/A   Clear
6:55 PM 80.6 °F 85.4 °F 73.4 °F 79% 29.80 in 10.0 mi Calm Calm - N/A   Clear
7:15 PM 80.6 °F 85.4 °F 73.4 °F 79% 29.80 in 10.0 mi Calm Calm - N/A   Clear
7:35 PM 80.6 °F 86.2 °F 75.2 °F 84% 29.80 in 10.0 mi Calm Calm - N/A   Scattered Clouds
7:55 PM 80.6 °F 86.2 °F 75.2 °F 84% 29.80 in 10.0 mi Calm Calm - N/A   Scattered Clouds
8:15 PM 80.6 °F 86.2 °F 75.2 °F 84% 29.80 in 10.0 mi SSW 3.5 mph - N/A   Clear
8:35 PM 80.6 °F 87.1 °F 77.0 °F 89% 29.78 in 10.0 mi SSW 5.8 mph - N/A   Scattered Clouds
8:55 PM 80.6 °F 86.2 °F 75.2 °F 84% 29.78 in 10.0 mi SW 6.9 mph - N/A   Mostly Cloudy
9:15 PM 80.6 °F 85.4 °F 73.4 °F 79% 29.78 in 10.0 mi SW 5.8 mph - N/A   Mostly Cloudy
9:35 PM 80.6 °F 85.4 °F 73.4 °F 79% 29.79 in 10.0 mi SW 5.8 mph - N/A   Scattered Clouds
9:55 PM 80.6 °F 85.4 °F 73.4 °F 79% 29.80 in 10.0 mi NW 13.8 mph 19.6 mph N/A   Scattered Clouds
10:15 PM 73.4 °F - 71.6 °F 94% 29.81 in 10.0 mi NNW 18.4 mph 25.3 mph N/A   Mostly Cloudy
10:35 PM 73.4 °F - 71.6 °F 94% 29.82 in 10.0 mi North 4.6 mph - N/A   Mostly Cloudy
10:55 PM 73.4 °F - 71.6 °F 94% 29.82 in 10.0 mi North 3.5 mph - N/A   Overcast
11:35 PM 73.4 °F - 71.6 °F 94% 29.82 in 10.0 mi Calm Calm - N/A   Overcast
11:55 PM 73.4 °F - 71.6 °F 94% 29.81 in 10.0 mi Calm Calm - N/A   Overcast